This is the latest recevied weather packets stored in our database for station/object K7AEL. If no packets are shown the sender has not sent any weather packets the latest 10 day(s).
| Time | Temp. | Humidity | Pressure | Rain* | Wind** | Luminosity | Snow |
|---|---|---|---|---|---|---|---|
| 1777312507 | 23.33° C | 24% | 1015.4 hPa | 0 mm | - | 690 W/m² | - |
| 1777312204 | 23.33° C | 23% | 1015.4 hPa | 0 mm | - | 680 W/m² | - |
| 1777311902 | 22.78° C | 24% | 1015.5 hPa | 0 mm | - | 673 W/m² | - |
| 1777311598 | 23.33° C | 23% | 1015.5 hPa | 0 mm | - | 662 W/m² | - |
| 1777311296 | 22.78° C | 25% | 1015.5 hPa | 0 mm | - | 652 W/m² | - |
| 1777310994 | 22.22° C | 28% | 1015.4 hPa | 0 mm | - | 646 W/m² | - |
| 1777310691 | 22.22° C | 27% | 1015.6 hPa | 0 mm | - | 639 W/m² | - |
| 1777310388 | 22.22° C | 28% | 1015.4 hPa | 0 mm | - | 630 W/m² | - |
| 1777310085 | 22.22° C | 27% | 1015.5 hPa | 0 mm | - | 619 W/m² | - |
| 1777309783 | 21.67° C | 28% | 1015.6 hPa | 0 mm | - | 605 W/m² | - |
| 1777309480 | 22.22° C | 29% | 1015.5 hPa | 0 mm | - | 588 W/m² | - |
| 1777309177 | 21.67° C | 28% | 1015.6 hPa | 0 mm | - | 581 W/m² | - |
| 1777308875 | 22.22° C | 29% | 1015.5 hPa | 0 mm | - | 567 W/m² | - |
| 1777308571 | 21.67° C | 29% | 1015.7 hPa | 0 mm | - | 559 W/m² | - |
| 1777308267 | 22.22° C | 28% | 1015.5 hPa | 0 mm | - | 546 W/m² | - |
| 1777307962 | 21.67° C | 29% | 1015.5 hPa | 0 mm | - | 531 W/m² | - |
| 1777307660 | 21.67° C | 29% | 1015.5 hPa | 0 mm | - | 525 W/m² | - |
| 1777307357 | 21.11° C | 30% | 1015.5 hPa | 0 mm | - | 515 W/m² | - |
| 1777307055 | 20.56° C | 30% | 1015.6 hPa | 0 mm | - | 494 W/m² | - |
| 1777306752 | 21.11° C | 30% | 1015.6 hPa | 0 mm | - | 483 W/m² | - |
| 1777306449 | 21.11° C | 30% | 1015.7 hPa | 0 mm | - | 469 W/m² | - |
| 1777306144 | 20.56° C | 30% | 1015.5 hPa | 0 mm | - | 457 W/m² | - |
| 1777305839 | 20.56° C | 31% | 1015.8 hPa | 0 mm | - | 444 W/m² | - |
| 1777305535 | 20.56° C | 30% | 1015.6 hPa | 0 mm | - | 426 W/m² | - |
| 1777305230 | 20.56° C | 30% | 1015.7 hPa | 0 mm | - | 407 W/m² | - |
* Rain latest hour (hover to see other rain measurements)
** Current wind speed in m/s (hover to see current wind gust speed)